[[{"header":{"parameterUnit":"m.s-1","parameterCategory":1,"la1":30.2991,"la2":30.254,"lo1":-89.0895,"lo2":-89.0444,"dy":0.0017,"dx":0.0017,"nx":28,"ny":28,"refTime":"2023-09-08T09:00:00:Z","depth":0,"parameterNumber":2,"parameterNumberName":"U-component_of_WINDS"},"data":[0,0,0,0,0,0,0,0,0,0,0,0,0,0,0,0,0,0,0,0,0,0,0,0,0,0,0,0,0,0,0,0,0,0,0,0,0,0,0,0,0,0,0,0,0,0,0,0,0,0,0,0,0,0,0,0,0,0,-0.593,-0.593,0,-0.5895,-0.5895,-0.5895,-0.5906,-0.5906,-0.5907,-0.5908,-0.5872,-0.587,-0.5868,0,0,0,0,0,0,0,0,0,0,0,0,0,-0.6007,-0.6006,-0.593,-0.593,-0.5929,-0.5895,-0.5895,-0.5895,-0.5906,-0.5907,-0.5907,-0.5908,-0.5872,-0.587,-0.5868,0,0,0,0,0,0,0,0,0,0,0,0,0,-0.5973,-0.6005,-0.593,-0.5931,-0.5931,-0.5896,-0.5895,-0.5894,-0.5905,-0.5907,-0.5908,-0.5909,-0.5873,-0.587,-0.5868,-0.583,0,0,-0.586,-0.5859,0,0,0,0,0,0,0,0,-0.5975,-0.597,-0.5931,-0.5931,-0.593,-0.5906,-0.5909,-0.5873,-0.5905,-0.5915,-0.5908,-0.5909,-0.5882,-0.5879,-0.587,-0.5829,-0.5827,-0.586,-0.5859,-0.5858,-0.5857,0,0,0,0,0,0,0,-0.5977,-0.5972,-0.5916,-0.5931,-0.593,-0.5933,-0.593,-0.5902,-0.5893,-0.5914,-0.5915,-0.5911,-0.5882,-0.5872,-0.5869,-0.5826,-0.586,-0.5858,-0.5857,-0.5856,-0.5753,-0.5752,0,0,0,0,0,0,-0.598,-0.5974,-0.5918,-0.5915,-0.5956,-0.5931,-0.5927,-0.5913,-0.5893,-0.5891,-0.591,-0.5911,-0.5876,-0.5872,-0.5868,-0.5822,-0.5858,-0.5855,-0.5854,-0.5755,-0.5753,-0.5752,0,0,0,0,0,0,-0.5982,-0.5975,-0.5919,-0.5945,-0.5938,-0.5928,-0.5912,-0.5911,-0.5902,-0.589,-0.5888,-0.5901,-0.5877,-0.5872,-0.584,-0.5821,-0.5854,-0.5852,-0.5756,-0.5754,-0.5752,-0.5731,0,0,0,0,0,0,-0.5984,-0.5975,-0.596,-0.5944,-0.5937,-0.5891,-0.5911,-0.591,-0.5897,-0.5899,-0.5881,-0.588,-0.5877,-0.5843,-0.5837,-0.5819,-0.585,-0.5758,-0.5755,-0.5753,-0.5733,-0.5729,-0.5725,0,0,0,0,0,-0.5987,-0.5956,-0.596,-0.5953,-0.5918,-0.589,-0.5885,-0.5883,-0.5896,-0.5881,-0.5874,-0.588,-0.5825,-0.584,-0.5833,-0.5813,-0.5759,-0.5756,-0.5753,-0.5735,-0.573,-0.5725,0,0,0,0,0,0,-0.5969,-0.5953,-0.5958,-0.5921,-0.5907,-0.5892,-0.5873,-0.5877,-0.5859,-0.5862,-0.586,-0.5856,-0.5824,-0.5816,-0.5833,-0.5777,-0.5794,-0.5789,-0.5782,-0.5777,-0.5773,-0.5774,-0.5848,0,0,0,0,0,-0.5961,-0.594,-0.5927,-0.5896,-0.5889,-0.5882,-0.587,-0.587,-0.5855,-0.5849,-0.5839,-0.5825,-0.5804,-0.579,-0.5771,-0.5733,-0.5729,-0.5716,-0.5712,-0.5709,-0.5704,-0.5684,-0.5678,-0.5743,-0.5743,-0.5743,0,0,-0.5944,-0.5933,-0.5919,-0.5892,-0.5881,-0.5859,-0.5877,-0.5852,-0.5836,-0.5845,-0.5814,-0.5807,-0.5791,-0.5756,-0.574,-0.5749,-0.5686,-0.5705,-0.5703,-0.57,-0.5681,-0.5675,-0.5669,-0.5741,-0.5741,-0.5742,0,0,-0.5901,-0.589,-0.5863,-0.5852,-0.5836,-0.5832,-0.5826,-0.5811,-0.5806,-0.5776,-0.5782,-0.5764,-0.5728,-0.5716,-0.5706,-0.5661,-0.5666,-0.5655,-0.5632,-0.5612,-0.5607,-0.5603,-0.5586,-0.558,-0.5651,-0.5651,-0.5651,0,-0.5881,-0.5848,-0.5848,-0.5824,-0.5812,-0.5821,-0.5793,-0.5783,-0.5761,-0.5752,-0.5762,-0.5719,-0.5708,-0.5671,-0.5661,-0.5652,-0.5645,-0.5656,-0.5608,-0.5603,-0.5599,-0.5583,-0.5577,-0.565,-0.565,-0.565,-0.565,0,-0.5824,-0.5802,-0.5782,-0.5761,-0.5747,-0.5721,-0.5718,-0.5704,-0.5707,-0.5702,-0.5671,-0.566,-0.5638,-0.563,-0.5631,-0.5593,-0.5599,-0.5609,-0.5625,-0.5592,-0.5577,-0.5571,-0.5648,-0.5648,-0.5649,-0.5649,0,0,-0.5766,-0.5748,-0.574,-0.5731,-0.5715,-0.5698,-0.5673,-0.5653,-0.5641,-0.5626,-0.5605,-0.5576,-0.5586,-0.5574,-0.5574,-0.5557,-0.5523,-0.5569,-0.5569,-0.556,-0.5479,-0.5471,-0.5464,-0.5527,-0.5526,-0.5525,-0.5481,0,-0.5721,-0.5677,-0.5678,-0.5637,-0.5617,-0.5626,-0.5605,-0.5593,-0.5589,-0.5571,-0.5566,-0.5545,-0.5559,-0.5552,-0.5536,-0.553,-0.5506,-0.5534,-0.5507,-0.5506,-0.5509,-0.5456,-0.5447,-0.5405,-0.5475,-0.5474,-0.5473,0,-0.5662,-0.5646,-0.5603,-0.5591,-0.5583,-0.5563,-0.5545,-0.5528,-0.5515,-0.5514,-0.5501,-0.5505,-0.5481,-0.55,-0.5466,-0.5485,-0.5475,-0.5471,-0.5469,-0.5465,-0.5486,-0.545,-0.5392,-0.5385,-0.5464,-0.5465,-0.5465,0,-0.5622,-0.5591,-0.5561,-0.5554,-0.5539,-0.5525,-0.5519,-0.5507,-0.5495,-0.548,-0.5472,-0.5454,-0.5444,-0.543,-0.543,-0.5444,-0.5395,-0.5415,-0.5393,-0.5393,-0.538,-0.5381,-0.5319,-0.5376,-0.5376,-0.5377,-0.5377,0,-0.5571,-0.5544,-0.5544,-0.5525,-0.5496,-0.5498,-0.5469,-0.5464,-0.5454,-0.5435,-0.5443,-0.5425,-0.5426,-0.5408,-0.5408,-0.538,-0.5376,-0.5373,-0.5373,-0.5371,-0.5371,-0.5363,-0.5365,-0.5375,-0.5375,-0.5376,-0.5376,0,-0.5521,-0.5519,-0.5488,-0.5478,-0.5475,-0.5454,-0.5445,-0.5428,-0.5426,-0.5402,-0.5396,-0.5392,-0.5372,-0.537,-0.5347,-0.5346,-0.5312,-0.5316,-0.5316,-0.5316,-0.5294,-0.5295,-0.5223,-0.5213,-0.5279,-0.5278,-0.5277,0,-0.5487,-0.5466,-0.5455,-0.5443,-0.5436,-0.5417,-0.5405,-0.5407,-0.5395,-0.538,-0.5365,-0.5345,-0.5329,-0.5296,-0.5291,-0.5274,-0.5276,-0.5252,-0.5273,-0.5273,-0.5274,-0.5275,-0.5273,-0.5247,-0.5246,-0.5246,-0.5245,0,-0.5426,-0.5427,-0.541,-0.5393,-0.5379,-0.5366,-0.5354,-0.5344,-0.5345,-0.5331,-0.531,-0.5298,-0.5275,-0.5255,-0.5238,-0.5232,-0.5238,-0.5239,-0.5233,-0.523,-0.5231,-0.5229,-0.5303,-0.524,-0.5241,-0.5241,-0.5241,-0.5242,-0.5382,-0.5365,-0.5354,-0.5336,-0.5327,-0.5316,-0.5299,-0.5296,-0.5279,-0.526,-0.5263,-0.524,-0.523,-0.5208,-0.52,-0.5182,-0.5191,-0.5182,-0.5179,-0.5176,-0.5174,-0.5235,-0.518,-0.518,-0.518,-0.518,-0.518,0,-0.5321,-0.5316,-0.5298,-0.5282,-0.5267,-0.5277,-0.5264,-0.5251,-0.5231,-0.5221,-0.5206,-0.5183,-0.5164,-0.5159,-0.5141,-0.5128,-0.5131,-0.5123,-0.5123,-0.5122,-0.5168,-0.5174,-0.5122,-0.5122,-0.5122,-0.5122,-0.5122,-0.5122,-0.5288,-0.5259,-0.5259,-0.5227,-0.5222,-0.52,-0.5192,-0.5182,-0.5174,-0.5148,-0.5133,-0.513,-0.5122,-0.5104,-0.5088,-0.5087,-0.5079,-0.507,-0.507,-0.5113,-0.5118,-0.5124,-0.513,-0.5069,-0.5069,-0.5025,-0.5025,-0.5025]},{"header":{"parameterUnit":"m.s-1","parameterCategory":1,"la1":30.2991,"la2":30.254,"lo1":-89.0895,"lo2":-89.0444,"dy":0.0017,"dx":0.0017,"nx":28,"ny":28,"refTime":"2023-09-08T09:00:00:Z","depth":0,"parameterNumber":3,"parameterNumberName":"V-component_of_WINDS"},"data":[0,0,0,0,0,0,0,0,0,0,0,0,0,0,0,0,0,0,0,0,0,0,0,0,0,0,0,0,0,0,0,0,0,0,0,0,0,0,0,0,0,0,0,0,0,0,0,0,0,0,0,0,0,0,0,0,0,0,-0.5985,-0.5987,0,-0.6183,-0.6185,-0.6187,-0.6302,-0.6303,-0.6303,-0.6303,-0.6511,-0.6516,-0.6522,0,0,0,0,0,0,0,0,0,0,0,0,0,-0.5712,-0.5717,-0.5984,-0.5987,-0.5989,-0.6182,-0.6185,-0.6188,-0.6302,-0.6303,-0.6303,-0.6304,-0.651,-0.6516,-0.6522,0,0,0,0,0,0,0,0,0,0,0,0,0,-0.5862,-0.5718,-0.5984,-0.607,-0.6079,-0.6182,-0.6185,-0.6188,-0.6302,-0.6303,-0.6303,-0.6304,-0.6508,-0.6515,-0.6523,-0.6557,0,0,-0.6546,-0.655,0,0,0,0,0,0,0,0,-0.5854,-0.5872,-0.6055,-0.6064,-0.6075,-0.6218,-0.6165,-0.6312,-0.6302,-0.6218,-0.6303,-0.6304,-0.6414,-0.6429,-0.6465,-0.6567,-0.6576,-0.6547,-0.6552,-0.6555,-0.6557,0,0,0,0,0,0,0,-0.5843,-0.5865,-0.6063,-0.6057,-0.607,-0.61,-0.6122,-0.6194,-0.631,-0.6225,-0.6234,-0.6255,-0.6419,-0.6457,-0.6471,-0.6579,-0.6547,-0.6554,-0.6558,-0.6561,-0.6722,-0.6721,0,0,0,0,0,0,-0.5818,-0.5855,-0.6057,-0.6069,-0.5963,-0.6105,-0.6129,-0.6172,-0.6309,-0.6331,-0.6255,-0.626,-0.6444,-0.6462,-0.6479,-0.6529,-0.6555,-0.6562,-0.6567,-0.6722,-0.6721,-0.6721,0,0,0,0,0,0,-0.5812,-0.5835,-0.6049,-0.5965,-0.5994,-0.6109,-0.6155,-0.6175,-0.6213,-0.6331,-0.6353,-0.6271,-0.6445,-0.6468,-0.6537,-0.6538,-0.6566,-0.6573,-0.6722,-0.6722,-0.6721,-0.6629,0,0,0,0,0,0,-0.5804,-0.5832,-0.5845,-0.5964,-0.5998,-0.6101,-0.6155,-0.6179,-0.6225,-0.6234,-0.6353,-0.6374,-0.6447,-0.6525,-0.6544,-0.6549,-0.6579,-0.6723,-0.6722,-0.6721,-0.6632,-0.6625,-0.6619,0,0,0,0,0,-0.5794,-0.5811,-0.5845,-0.5868,-0.6016,-0.6101,-0.6121,-0.6204,-0.6225,-0.624,-0.6316,-0.637,-0.6534,-0.6531,-0.6554,-0.6561,-0.6723,-0.6722,-0.6721,-0.6635,-0.6627,-0.6619,0,0,0,0,0,0,-0.5691,-0.5829,-0.5867,-0.5923,-0.5999,-0.612,-0.6141,-0.6192,-0.6265,-0.627,-0.6372,-0.6398,-0.6458,-0.6517,-0.651,-0.6603,-0.6635,-0.6639,-0.6561,-0.6554,-0.6548,-0.6532,-0.6585,0,0,0,0,0,-0.5674,-0.573,-0.5849,-0.5887,-0.5923,-0.6025,-0.6066,-0.6123,-0.6207,-0.624,-0.6322,-0.6402,-0.6473,-0.6517,-0.6588,-0.6642,-0.6671,-0.6658,-0.6651,-0.6645,-0.6648,-0.6682,-0.6679,-0.6718,-0.6718,-0.6718,0,0,-0.5642,-0.5724,-0.5753,-0.5869,-0.5934,-0.5992,-0.6052,-0.611,-0.6155,-0.625,-0.632,-0.6382,-0.648,-0.6541,-0.6573,-0.6592,-0.6643,-0.6644,-0.6639,-0.6644,-0.6681,-0.6677,-0.6674,-0.6718,-0.6718,-0.6718,0,0,-0.5612,-0.5679,-0.5719,-0.5783,-0.5882,-0.595,-0.5959,-0.6073,-0.6118,-0.6189,-0.6262,-0.6318,-0.6437,-0.6503,-0.6553,-0.655,-0.6602,-0.657,-0.6536,-0.6568,-0.6565,-0.6563,-0.6563,-0.6562,-0.6572,-0.6572,-0.6572,0,-0.5559,-0.5647,-0.5734,-0.5788,-0.5837,-0.5925,-0.5968,-0.6027,-0.6144,-0.6177,-0.6197,-0.6349,-0.642,-0.65,-0.6499,-0.6536,-0.6552,-0.6557,-0.6558,-0.6557,-0.6556,-0.6557,-0.6557,-0.6567,-0.6568,-0.6568,-0.6569,0,-0.5578,-0.5638,-0.5659,-0.5768,-0.5821,-0.5869,-0.5965,-0.6008,-0.6061,-0.6128,-0.6201,-0.629,-0.6381,-0.6405,-0.6458,-0.6493,-0.6502,-0.6538,-0.6573,-0.6546,-0.6549,-0.655,-0.6561,-0.6562,-0.6564,-0.6565,0,0,-0.5488,-0.5645,-0.5651,-0.5702,-0.5818,-0.5867,-0.5921,-0.6009,-0.6044,-0.6123,-0.6171,-0.627,-0.6305,-0.6361,-0.6423,-0.6452,-0.6445,-0.6486,-0.649,-0.6476,-0.6491,-0.6462,-0.6461,-0.6481,-0.6482,-0.6482,-0.6483,0,-0.5475,-0.5572,-0.5653,-0.5721,-0.5779,-0.5864,-0.5911,-0.5988,-0.6053,-0.6113,-0.6185,-0.6254,-0.6294,-0.6329,-0.6361,-0.6439,-0.645,-0.644,-0.6529,-0.6531,-0.6502,-0.6463,-0.6433,-0.6429,-0.6485,-0.6485,-0.6485,0,-0.5472,-0.5546,-0.5619,-0.573,-0.5758,-0.5798,-0.5886,-0.5942,-0.6033,-0.6078,-0.614,-0.6205,-0.6268,-0.6297,-0.6386,-0.6378,-0.642,-0.6464,-0.6466,-0.6477,-0.6506,-0.6474,-0.643,-0.6429,-0.6488,-0.6487,-0.6487,0,-0.5399,-0.5517,-0.5577,-0.5618,-0.5749,-0.5776,-0.5832,-0.5923,-0.5972,-0.6049,-0.6082,-0.6167,-0.6213,-0.6279,-0.6365,-0.6378,-0.6446,-0.6482,-0.6487,-0.6485,-0.6497,-0.6495,-0.646,-0.6523,-0.6523,-0.6523,-0.6523,0,-0.5377,-0.5418,-0.5546,-0.5583,-0.5633,-0.5727,-0.5775,-0.5839,-0.592,-0.5972,-0.6052,-0.61,-0.6212,-0.6274,-0.6343,-0.6407,-0.6428,-0.6467,-0.6485,-0.646,-0.6455,-0.6489,-0.6491,-0.6523,-0.6523,-0.6523,-0.6523,0,-0.5304,-0.539,-0.5461,-0.5579,-0.561,-0.5642,-0.5745,-0.5785,-0.5854,-0.592,-0.5941,-0.605,-0.6128,-0.6221,-0.6329,-0.6375,-0.6434,-0.646,-0.6402,-0.6413,-0.6413,-0.6412,-0.6398,-0.6401,-0.6461,-0.646,-0.646,0,-0.5283,-0.5317,-0.5439,-0.5479,-0.5532,-0.5595,-0.5645,-0.574,-0.5788,-0.5895,-0.5923,-0.6006,-0.6078,-0.6199,-0.6289,-0.6373,-0.6402,-0.6392,-0.6415,-0.639,-0.6403,-0.64,-0.6405,-0.6385,-0.6384,-0.6383,-0.6382,0,-0.5238,-0.5279,-0.5346,-0.5429,-0.5485,-0.5555,-0.5629,-0.5658,-0.5768,-0.5819,-0.5898,-0.5954,-0.6064,-0.6147,-0.6242,-0.6304,-0.6362,-0.6374,-0.638,-0.6355,-0.632,-0.634,-0.6385,-0.6374,-0.6375,-0.6375,-0.6376,-0.6376,-0.5191,-0.5226,-0.5317,-0.5389,-0.5455,-0.5522,-0.5566,-0.564,-0.5707,-0.5803,-0.5856,-0.5934,-0.6027,-0.6161,-0.622,-0.6285,-0.6305,-0.6313,-0.6316,-0.6316,-0.6309,-0.6309,-0.6303,-0.6303,-0.6303,-0.6304,-0.6304,0,-0.515,-0.5213,-0.5279,-0.5379,-0.5437,-0.5485,-0.557,-0.5615,-0.5683,-0.5763,-0.5832,-0.5924,-0.6005,-0.6102,-0.619,-0.6224,-0.6253,-0.6244,-0.6242,-0.6256,-0.6285,-0.6272,-0.6219,-0.6219,-0.6219,-0.6219,-0.6219,-0.6219,-0.5136,-0.5197,-0.525,-0.5346,-0.541,-0.5485,-0.553,-0.5593,-0.5658,-0.5757,-0.5824,-0.5886,-0.5975,-0.607,-0.6147,-0.6174,-0.6203,-0.6186,-0.622,-0.6246,-0.6253,-0.626,-0.6248,-0.6191,-0.6191,-0.6186,-0.6186,-0.6186]}]]